Time,TemperatureF,DewpointF,PressureIn,WindDirection,WindDirectionDegrees,WindSpeedMPH,WindSpeedGustMPH,Humidity,HourlyPrecipIn,Conditions,Clouds,dailyrainin,SoftwareType,DateUTC
2013-03-30 00:00:00,55.1,48.4,30.17,WNW,303,0.0,9.0,78,0.00,,,0.00,Wunderground v.1.15,2013-03-30 04:00:00,
2013-03-30 00:05:00,54.8,48.1,30.17,WNW,303,0.0,9.0,78,0.00,,,0.00,Wunderground v.1.15,2013-03-30 04:05:00,
2013-03-30 00:15:00,54.5,47.8,30.16,WNW,303,0.0,2.0,78,0.00,,,0.00,Wunderground v.1.15,2013-03-30 04:15:00,
2013-03-30 00:20:00,54.5,47.8,30.16,NW,304,0.0,2.0,78,0.00,,,0.00,Wunderground v.1.15,2013-03-30 04:20:00,
2013-03-30 00:25:00,54.4,47.7,30.16,NE,53,0.0,5.0,78,0.00,,,0.00,Wunderground v.1.15,2013-03-30 04:25:00,
2013-03-30 00:35:00,54.8,47.7,30.16,NE,49,2.0,2.0,77,0.00,,,0.00,Wunderground v.1.15,2013-03-30 04:35:00,
2013-03-30 00:45:00,54.7,47.3,30.16,NE,44,0.0,2.0,76,0.00,,,0.00,Wunderground v.1.15,2013-03-30 04:45:00,
2013-03-30 00:50:00,54.7,47.3,30.16,NE,46,1.0,1.0,76,0.00,,,0.00,Wunderground v.1.15,2013-03-30 04:50:00,
2013-03-30 01:00:00,54.5,46.4,30.16,NE,48,0.0,4.0,74,0.00,,,0.00,Wunderground v.1.15,2013-03-30 05:00:00,
2013-03-30 01:05:00,54.4,46.3,30.16,NE,55,1.0,4.0,74,0.00,,,0.00,Wunderground v.1.15,2013-03-30 05:05:00,
2013-03-30 01:15:00,54.4,45.9,30.16,NE,54,0.0,2.0,73,0.00,,,0.00,Wunderground v.1.15,2013-03-30 05:15:00,
2013-03-30 01:20:00,54.2,45.4,30.16,NE,56,1.0,1.0,72,0.00,,,0.00,Wunderground v.1.15,2013-03-30 05:20:00,
2013-03-30 01:30:00,54.2,45.0,30.16,NE,56,0.0,2.0,71,0.00,,,0.00,Wunderground v.1.15,2013-03-30 05:30:00,
2013-03-30 01:35:00,53.9,44.7,30.16,NE,56,0.0,2.0,71,0.00,,,0.00,Wunderground v.1.15,2013-03-30 05:35:00,
2013-03-30 01:45:00,53.9,44.3,30.16,NE,56,0.0,2.0,70,0.00,,,0.00,Wunderground v.1.15,2013-03-30 05:45:00,
2013-03-30 01:50:00,53.9,44.0,30.16,NE,55,0.0,2.0,69,0.00,,,0.00,Wunderground v.1.15,2013-03-30 05:50:00,
2013-03-30 02:00:00,53.8,43.9,30.16,NE,54,0.0,2.0,69,0.00,,,0.00,Wunderground v.1.15,2013-03-30 06:00:00,
2013-03-30 02:05:00,53.9,43.6,30.16,NE,54,0.0,2.0,68,0.00,,,0.00,Wunderground v.1.15,2013-03-30 06:05:00,
2013-03-30 02:15:00,54.1,43.4,30.16,NE,53,1.0,2.0,67,0.00,,,0.00,Wunderground v.1.15,2013-03-30 06:15:00,
2013-03-30 02:20:00,54.2,43.5,30.16,NE,54,1.0,1.0,67,0.00,,,0.00,Wunderground v.1.15,2013-03-30 06:20:00,
2013-03-30 02:30:00,54.4,43.7,30.16,ENE,60,1.0,1.0,67,0.00,,,0.00,Wunderground v.1.15,2013-03-30 06:30:00,
2013-03-30 02:35:00,54.2,43.5,30.16,ENE,60,0.0,2.0,67,0.00,,,0.00,Wunderground v.1.15,2013-03-30 06:35:00,
2013-03-30 02:45:00,54.2,43.5,30.16,ENE,60,0.0,2.0,67,0.00,,,0.00,Wunderground v.1.15,2013-03-30 06:45:00,
2013-03-30 02:55:00,54.1,43.8,30.16,ENE,60,0.0,2.0,68,0.00,,,0.00,Wunderground v.1.15,2013-03-30 06:55:00,
2013-03-30 03:00:00,54.1,43.8,30.16,ENE,60,0.0,2.0,68,0.00,,,0.00,Wunderground v.1.15,2013-03-30 07:00:00,
2013-03-30 03:10:00,53.6,43.7,30.16,ENE,60,0.0,0.0,69,0.00,,,0.00,Wunderground v.1.15,2013-03-30 07:10:00,
2013-03-30 03:15:00,53.3,43.8,30.16,ENE,60,0.0,0.0,70,0.00,,,0.00,Wunderground v.1.15,2013-03-30 07:15:00,
2013-03-30 03:25:00,53.2,43.7,30.16,ENE,60,0.0,0.0,70,0.00,,,0.00,Wunderground v.1.15,2013-03-30 07:25:00,
2013-03-30 03:35:00,53.6,43.7,30.15,ENE,60,0.0,0.0,69,0.00,,,0.00,Wunderground v.1.15,2013-03-30 07:35:00,
2013-03-30 03:40:00,53.8,43.9,30.15,ENE,60,0.0,0.0,69,0.00,,,0.00,Wunderground v.1.15,2013-03-30 07:40:00,
2013-03-30 03:50:00,53.2,43.7,30.14,ENE,59,0.0,6.0,70,0.00,,,0.00,Wunderground v.1.15,2013-03-30 07:50:00,
2013-03-30 03:55:00,52.9,43.4,30.14,ENE,58,0.0,6.0,70,0.00,,,0.00,Wunderground v.1.15,2013-03-30 07:55:00,
2013-03-30 04:05:00,53.1,43.6,30.13,ENE,58,0.0,0.0,70,0.00,,,0.00,Wunderground v.1.15,2013-03-30 08:05:00,
2013-03-30 04:15:00,52.5,43.4,30.13,ENE,58,0.0,0.0,71,0.00,,,0.00,Wunderground v.1.15,2013-03-30 08:15:00,
2013-03-30 04:20:00,52.5,43.4,30.13,ENE,58,0.0,0.0,71,0.00,,,0.00,Wunderground v.1.15,2013-03-30 08:20:00,
2013-03-30 04:30:00,52.3,43.5,30.12,ENE,58,0.0,0.0,72,0.00,,,0.00,Wunderground v.1.15,2013-03-30 08:30:00,
2013-03-30 04:35:00,52.2,43.4,30.12,ENE,58,0.0,0.0,72,0.00,,,0.00,Wunderground v.1.15,2013-03-30 08:35:00,
2013-03-30 04:45:00,51.7,43.3,30.12,ENE,58,0.0,0.0,73,0.00,,,0.00,Wunderground v.1.15,2013-03-30 08:45:00,
2013-03-30 04:55:00,51.7,43.7,30.12,ENE,58,0.0,0.0,74,0.00,,,0.00,Wunderground v.1.15,2013-03-30 08:55:00,
2013-03-30 05:05:00,51.6,43.6,30.12,ENE,58,0.0,0.0,74,0.00,,,0.00,Wunderground v.1.15,2013-03-30 09:05:00,
2013-03-30 05:10:00,51.4,43.4,30.12,ENE,58,0.0,0.0,74,0.00,,,0.00,Wunderground v.1.15,2013-03-30 09:10:00,
2013-03-30 05:20:00,51.6,43.2,30.12,ENE,58,0.0,0.0,73,0.00,,,0.00,Wunderground v.1.15,2013-03-30 09:20:00,
2013-03-30 05:25:00,51.9,43.2,30.12,ENE,58,0.0,0.0,72,0.00,,,0.00,Wunderground v.1.15,2013-03-30 09:25:00,
2013-03-30 05:35:00,51.9,42.8,30.11,ENE,58,0.0,0.0,71,0.00,,,0.00,Wunderground v.1.15,2013-03-30 09:35:00,
2013-03-30 05:45:00,52.0,42.9,30.12,ENE,58,0.0,0.0,71,0.00,,,0.00,Wunderground v.1.15,2013-03-30 09:45:00,
2013-03-30 05:50:00,52.0,42.9,30.12,ENE,58,0.0,0.0,71,0.00,,,0.00,Wunderground v.1.15,2013-03-30 09:50:00,
2013-03-30 06:00:00,52.0,42.9,30.13,ENE,58,0.0,0.0,71,0.00,,,0.00,Wunderground v.1.15,2013-03-30 10:00:00,
2013-03-30 06:05:00,51.6,42.9,30.13,ENE,58,0.0,0.0,72,0.00,,,0.00,Wunderground v.1.15,2013-03-30 10:05:00,
2013-03-30 06:15:00,50.8,42.8,30.13,ENE,58,0.0,0.0,74,0.00,,,0.00,Wunderground v.1.15,2013-03-30 10:15:00,
2013-03-30 06:25:00,50.7,43.1,30.13,ENE,58,0.0,0.0,75,0.00,,,0.00,Wunderground v.1.15,2013-03-30 10:25:00,
2013-03-30 06:30:00,50.5,42.9,30.13,ENE,58,0.0,0.0,75,0.00,,,0.00,Wunderground v.1.15,2013-03-30 10:30:00,
2013-03-30 06:40:00,50.4,43.1,30.13,ENE,58,0.0,0.0,76,0.00,,,0.00,Wunderground v.1.15,2013-03-30 10:40:00,
2013-03-30 06:45:00,50.2,43.3,30.14,ENE,58,0.0,0.0,77,0.00,,,0.00,Wunderground v.1.15,2013-03-30 10:45:00,
2013-03-30 06:50:00,50.2,43.3,30.14,ENE,58,0.0,0.0,77,0.00,,,0.00,Wunderground v.1.15,2013-03-30 10:50:00,
2013-03-30 06:55:00,50.5,43.9,30.14,ENE,58,0.0,0.0,78,0.00,,,0.00,Wunderground v.1.15,2013-03-30 10:55:00,
2013-03-30 07:05:00,50.5,43.6,30.14,ENE,58,0.0,0.0,77,0.00,,,0.00,Wunderground v.1.15,2013-03-30 11:05:00,
2013-03-30 07:10:00,50.4,43.8,30.14,ENE,58,0.0,0.0,78,0.00,,,0.00,Wunderground v.1.15,2013-03-30 11:10:00,
2013-03-30 07:20:00,50.4,44.1,30.15,ENE,58,0.0,0.0,79,0.00,,,0.00,Wunderground v.1.15,2013-03-30 11:20:00,
2013-03-30 07:30:00,50.4,44.1,30.15,ENE,58,0.0,0.0,79,0.00,,,0.00,Wunderground v.1.15,2013-03-30 11:30:00,
2013-03-30 07:35:00,50.4,44.5,30.15,ENE,58,0.0,0.0,80,0.00,,,0.00,Wunderground v.1.15,2013-03-30 11:35:00,
2013-03-30 07:45:00,50.7,45.1,30.16,NE,42,0.0,0.0,81,0.00,,,0.00,Wunderground v.1.15,2013-03-30 11:45:00,
2013-03-30 07:50:00,50.7,45.1,30.16,SSW,196,0.0,0.0,81,0.00,,,0.00,Wunderground v.1.15,2013-03-30 11:50:00,
2013-03-30 08:00:00,51.3,45.7,30.16,South,190,0.0,0.0,81,0.00,,,0.00,Wunderground v.1.15,2013-03-30 12:00:00,
2013-03-30 08:10:00,52.2,46.5,30.16,SE,146,0.0,0.0,81,0.00,,,0.00,Wunderground v.1.15,2013-03-30 12:10:00,
2013-03-30 08:15:00,52.8,47.1,30.17,SE,125,0.0,0.0,81,0.00,,,0.00,Wunderground v.1.15,2013-03-30 12:15:00,
2013-03-30 08:25:00,53.8,48.1,30.17,SE,125,0.0,0.0,81,0.00,,,0.00,Wunderground v.1.15,2013-03-30 12:25:00,
2013-03-30 08:30:00,54.4,48.4,30.16,ESE,115,0.0,3.0,80,0.00,,,0.00,Wunderground v.1.15,2013-03-30 12:30:00,
2013-03-30 08:40:00,55.7,49.6,30.16,ESE,115,0.0,1.0,80,0.00,,,0.00,Wunderground v.1.15,2013-03-30 12:40:00,
2013-03-30 08:50:00,57.3,50.8,30.16,SE,133,3.0,6.0,79,0.00,,,0.00,Wunderground v.1.15,2013-03-30 12:50:00,
2013-03-30 08:55:00,58.0,51.2,30.16,ESE,117,4.0,6.0,78,0.00,,,0.00,Wunderground v.1.15,2013-03-30 12:55:00,
2013-03-30 09:05:00,59.2,51.6,30.17,SE,132,3.0,10.0,76,0.00,,,0.00,Wunderground v.1.15,2013-03-30 13:05:00,
2013-03-30 09:15:00,59.8,51.1,30.17,ESE,106,6.0,18.0,73,0.00,,,0.00,Wunderground v.1.15,2013-03-30 13:15:00,
2013-03-30 09:20:00,60.1,51.0,30.17,ESE,118,7.0,11.0,72,0.00,,,0.00,Wunderground v.1.15,2013-03-30 13:20:00,
2013-03-30 09:30:00,60.5,51.4,30.17,SE,129,5.0,11.0,72,0.00,,,0.00,Wunderground v.1.15,2013-03-30 13:30:00,
2013-03-30 09:40:00,61.6,52.1,30.17,South,188,6.0,6.0,71,0.00,,,0.00,Wunderground v.1.15,2013-03-30 13:40:00,
2013-03-30 09:45:00,62.3,52.0,30.17,SSE,154,5.0,11.0,69,0.00,,,0.00,Wunderground v.1.15,2013-03-30 13:45:00,
2013-03-30 09:55:00,63.7,52.1,30.17,ESE,118,5.0,11.0,66,0.00,,,0.00,Wunderground v.1.15,2013-03-30 13:55:00,
2013-03-30 10:00:00,64.0,52.0,30.17,SE,146,6.0,11.0,65,0.00,,,0.00,Wunderground v.1.15,2013-03-30 14:00:00,
2013-03-30 10:10:00,64.7,52.2,30.17,ESE,122,9.0,13.0,64,0.00,,,0.00,Wunderground v.1.15,2013-03-30 14:10:00,
2013-03-30 10:20:00,65.5,52.6,30.17,SE,139,10.0,15.0,63,0.00,,,0.00,Wunderground v.1.15,2013-03-30 14:20:00,
2013-03-30 10:25:00,66.0,52.6,30.17,SE,143,10.0,15.0,62,0.00,,,0.00,Wunderground v.1.15,2013-03-30 14:25:00,
2013-03-30 10:35:00,67.1,53.2,30.16,SE,139,8.0,14.0,61,0.00,,,0.00,Wunderground v.1.15,2013-03-30 14:35:00,
2013-03-30 10:45:00,67.6,52.3,30.17,SE,143,8.0,9.0,58,0.00,,,0.00,Wunderground v.1.15,2013-03-30 14:45:00,
2013-03-30 10:50:00,67.9,53.0,30.17,SSE,148,8.0,8.0,59,0.00,,,0.00,Wunderground v.1.15,2013-03-30 14:50:00,
2013-03-30 11:00:00,68.6,52.8,30.17,South,174,5.0,5.0,57,0.00,,,0.00,Wunderground v.1.15,2013-03-30 15:00:00,
2013-03-30 11:05:00,68.6,52.8,30.17,ESE,103,6.0,11.0,57,0.00,,,0.00,Wunderground v.1.15,2013-03-30 15:05:00,
2013-03-30 11:15:00,69.1,50.7,30.16,South,181,11.0,11.0,52,0.00,,,0.00,Wunderground v.1.15,2013-03-30 15:15:00,
2013-03-30 11:25:00,69.3,50.4,30.16,SSE,158,9.0,11.0,51,0.00,,,0.00,Wunderground v.1.15,2013-03-30 15:25:00,
2013-03-30 11:30:00,69.8,50.3,30.16,South,176,8.0,8.0,50,0.00,,,0.00,Wunderground v.1.15,2013-03-30 15:30:00,
2013-03-30 11:40:00,70.4,46.8,30.16,SSW,207,10.0,11.0,43,0.00,,,0.00,Wunderground v.1.15,2013-03-30 15:40:00,
2013-03-30 11:50:00,70.9,46.7,30.16,South,184,11.0,12.0,42,0.00,,,0.00,Wunderground v.1.15,2013-03-30 15:50:00,
2013-03-30 12:00:00,70.9,44.7,30.17,South,180,12.0,23.0,39,0.00,,,0.00,Wunderground v.1.15,2013-03-30 16:00:00,
2013-03-30 12:05:00,70.8,45.9,30.17,South,189,14.0,23.0,41,0.00,,,0.00,Wunderground v.1.15,2013-03-30 16:05:00,
2013-03-30 12:15:00,70.8,47.2,30.16,SSW,205,14.0,29.0,43,0.00,,,0.00,Wunderground v.1.15,2013-03-30 16:15:00,
2013-03-30 12:25:00,70.8,48.4,30.16,WSW,243,15.0,29.0,45,0.00,,,0.00,Wunderground v.1.15,2013-03-30 16:25:00,
2013-03-30 12:30:00,70.9,45.4,30.16,SSW,203,14.0,29.0,40,0.00,,,0.00,Wunderground v.1.15,2013-03-30 16:30:00,
2013-03-30 12:40:00,71.5,47.8,30.16,South,186,11.0,29.0,43,0.00,,,0.00,Wunderground v.1.15,2013-03-30 16:40:00,
2013-03-30 12:50:00,71.1,48.1,30.15,SSE,155,13.0,29.0,44,0.00,,,0.00,Wunderground v.1.15,2013-03-30 16:50:00,
2013-03-30 12:55:00,70.9,49.1,30.15,SSW,212,14.0,29.0,46,0.00,,,0.00,Wunderground v.1.15,2013-03-30 16:55:00,
2013-03-30 13:05:00,70.9,50.2,30.15,SW,229,15.0,29.0,48,0.00,,,0.00,Wunderground v.1.15,2013-03-30 17:05:00,
2013-03-30 13:10:00,70.9,51.3,30.15,SSW,198,15.0,29.0,50,0.00,,,0.00,Wunderground v.1.15,2013-03-30 17:10:00,
2013-03-30 13:20:00,71.3,51.7,30.14,WSW,257,15.0,29.0,50,0.00,,,0.00,Wunderground v.1.15,2013-03-30 17:20:00,
2013-03-30 13:30:00,71.1,51.5,30.14,SW,233,15.0,15.0,50,0.00,,,0.00,Wunderground v.1.15,2013-03-30 17:30:00,
2013-03-30 13:35:00,71.1,52.0,30.14,SW,223,14.0,29.0,51,0.00,,,0.00,Wunderground v.1.15,2013-03-30 17:35:00,
2013-03-30 13:45:00,71.1,50.4,30.14,SSW,193,16.0,16.0,48,0.00,,,0.00,Wunderground v.1.15,2013-03-30 17:45:00,
2013-03-30 13:50:00,71.3,49.4,30.14,South,188,15.0,29.0,46,0.00,,,0.00,Wunderground v.1.15,2013-03-30 17:50:00,
2013-03-30 14:00:00,71.3,49.4,30.13,SW,229,15.0,29.0,46,0.00,,,0.00,Wunderground v.1.15,2013-03-30 18:00:00,
2013-03-30 14:10:00,71.6,49.7,30.13,SW,233,14.0,14.0,46,0.00,,,0.00,Wunderground v.1.15,2013-03-30 18:10:00,
2013-03-30 14:15:00,71.8,49.3,30.12,ESE,122,15.0,17.0,45,0.00,,,0.00,Wunderground v.1.15,2013-03-30 18:15:00,
2013-03-30 14:25:00,71.8,49.9,30.12,South,184,13.0,23.0,46,0.00,,,0.00,Wunderground v.1.15,2013-03-30 18:25:00,
2013-03-30 14:30:00,71.3,49.4,30.12,SW,214,13.0,13.0,46,0.00,,,0.00,Wunderground v.1.15,2013-03-30 18:30:00,
2013-03-30 14:40:00,71.5,49.6,30.12,South,191,15.0,15.0,46,0.00,,,0.00,Wunderground v.1.15,2013-03-30 18:40:00,
2013-03-30 14:50:00,71.8,51.0,30.11,SSW,206,12.0,29.0,48,0.00,,,0.00,Wunderground v.1.15,2013-03-30 18:50:00,
2013-03-30 15:00:00,72.1,49.6,30.10,SSW,212,13.0,29.0,45,0.00,,,0.00,Wunderground v.1.15,2013-03-30 19:00:00,
2013-03-30 15:10:00,72.0,48.9,30.10,SSW,203,15.0,15.0,44,0.00,,,0.00,Wunderground v.1.15,2013-03-30 19:10:00,
2013-03-30 15:15:00,72.1,49.0,30.09,SW,233,13.0,26.0,44,0.00,,,0.00,Wunderground v.1.15,2013-03-30 19:15:00,
2013-03-30 15:25:00,72.0,48.3,30.09,SW,230,14.0,26.0,43,0.00,,,0.00,Wunderground v.1.15,2013-03-30 19:25:00,
2013-03-30 15:35:00,72.3,47.9,30.09,WSW,249,14.0,19.0,42,0.00,,,0.00,Wunderground v.1.15,2013-03-30 19:35:00,
2013-03-30 15:40:00,72.0,47.6,30.09,SSW,204,14.0,14.0,42,0.00,,,0.00,Wunderground v.1.15,2013-03-30 19:40:00,
2013-03-30 15:50:00,72.5,48.7,30.09,SW,219,10.0,26.0,43,0.00,,,0.00,Wunderground v.1.15,2013-03-30 19:50:00,
2013-03-30 15:55:00,72.3,49.8,30.09,WSW,255,13.0,26.0,45,0.00,,,0.00,Wunderground v.1.15,2013-03-30 19:55:00,
2013-03-30 16:05:00,72.3,49.2,30.09,SSW,198,12.0,26.0,44,0.00,,,0.00,Wunderground v.1.15,2013-03-30 20:05:00,
2013-03-30 16:15:00,72.3,49.2,30.08,South,182,10.0,26.0,44,0.00,,,0.00,Wunderground v.1.15,2013-03-30 20:15:00,
2013-03-30 16:20:00,72.7,48.9,30.08,SW,219,11.0,26.0,43,0.00,,,0.00,Wunderground v.1.15,2013-03-30 20:20:00,
2013-03-30 16:30:00,72.5,48.7,30.08,South,170,11.0,11.0,43,0.00,,,0.00,Wunderground v.1.15,2013-03-30 20:30:00,
2013-03-30 16:35:00,72.7,48.9,30.08,SW,232,10.0,26.0,43,0.00,,,0.00,Wunderground v.1.15,2013-03-30 20:35:00,
2013-03-30 16:45:00,72.3,47.3,30.07,WSW,250,12.0,26.0,41,0.00,,,0.00,Wunderground v.1.15,2013-03-30 20:45:00,
2013-03-30 16:55:00,72.5,48.1,30.07,South,191,12.0,26.0,42,0.00,,,0.00,Wunderground v.1.15,2013-03-30 20:55:00,
2013-03-30 17:00:00,72.3,48.5,30.07,WSW,240,13.0,13.0,43,0.00,,,0.00,Wunderground v.1.15,2013-03-30 21:00:00,
2013-03-30 17:10:00,72.1,47.7,30.07,SSW,197,13.0,13.0,42,0.00,,,0.00,Wunderground v.1.15,2013-03-30 21:10:00,
2013-03-30 17:15:00,72.1,50.2,30.06,SW,233,12.0,26.0,46,0.00,,,0.00,Wunderground v.1.15,2013-03-30 21:15:00,
2013-03-30 17:25:00,72.5,49.9,30.06,South,190,8.0,26.0,45,0.00,,,0.00,Wunderground v.1.15,2013-03-30 21:25:00,
2013-03-30 17:35:00,72.5,51.7,30.06,WSW,240,8.0,26.0,48,0.00,,,0.00,Wunderground v.1.15,2013-03-30 21:35:00,
2013-03-30 17:40:00,72.0,51.2,30.06,SW,224,10.0,26.0,48,0.00,,,0.00,Wunderground v.1.15,2013-03-30 21:40:00,
2013-03-30 17:50:00,71.8,51.6,30.06,West,273,11.0,11.0,49,0.00,,,0.00,Wunderground v.1.15,2013-03-30 21:50:00,
2013-03-30 17:55:00,71.8,51.6,30.06,West,262,12.0,19.0,49,0.00,,,0.00,Wunderground v.1.15,2013-03-30 21:55:00,
2013-03-30 18:05:00,71.8,51.6,30.06,WSW,257,9.0,26.0,49,0.00,,,0.00,Wunderground v.1.15,2013-03-30 22:05:00,
2013-03-30 18:10:00,71.5,51.9,30.06,West,262,9.0,21.0,50,0.00,,,0.00,Wunderground v.1.15,2013-03-30 22:10:00,
2013-03-30 18:20:00,71.3,51.7,30.06,SW,218,8.0,8.0,50,0.00,,,0.00,Wunderground v.1.15,2013-03-30 22:20:00,
2013-03-30 18:30:00,70.9,51.3,30.06,SW,224,10.0,21.0,50,0.00,,,0.00,Wunderground v.1.15,2013-03-30 22:30:00,
2013-03-30 18:35:00,70.8,51.8,30.06,SW,218,10.0,21.0,51,0.00,,,0.00,Wunderground v.1.15,2013-03-30 22:35:00,
2013-03-30 18:45:00,70.9,51.9,30.07,WSW,243,8.0,21.0,51,0.00,,,0.00,Wunderground v.1.15,2013-03-30 22:45:00,
2013-03-30 18:50:00,70.6,51.6,30.07,West,260,8.0,21.0,51,0.00,,,0.00,Wunderground v.1.15,2013-03-30 22:50:00,
2013-03-30 19:00:00,69.9,51.5,30.07,West,259,12.0,12.0,52,0.00,,,0.00,Wunderground v.1.15,2013-03-30 23:00:00,
2013-03-30 19:05:00,69.8,51.4,30.07,West,271,10.0,21.0,52,0.00,,,0.00,Wunderground v.1.15,2013-03-30 23:05:00,
2013-03-30 19:10:00,69.6,52.2,30.07,West,262,9.0,21.0,54,0.00,,,0.00,Wunderground v.1.15,2013-03-30 23:10:00,
2013-03-30 19:20:00,68.9,52.6,30.07,West,264,7.0,21.0,56,0.00,,,0.00,Wunderground v.1.15,2013-03-30 23:20:00,
2013-03-30 19:25:00,68.6,52.3,30.07,WNW,285,7.0,21.0,56,0.00,,,0.00,Wunderground v.1.15,2013-03-30 23:25:00,
2013-03-30 19:35:00,67.9,52.6,30.07,West,263,5.0,21.0,58,0.00,,,0.00,Wunderground v.1.15,2013-03-30 23:35:00,
2013-03-30 19:45:00,67.1,52.7,30.07,West,281,1.0,21.0,60,0.00,,,0.00,Wunderground v.1.15,2013-03-30 23:45:00,
2013-03-30 19:50:00,66.8,52.9,30.07,WNW,287,2.0,21.0,61,0.00,,,0.00,Wunderground v.1.15,2013-03-30 23:50:00,
2013-03-30 20:00:00,66.1,53.1,30.07,WNW,285,1.0,1.0,63,0.00,,,0.00,Wunderground v.1.15,2013-03-31 00:00:00,
2013-03-30 20:05:00,65.8,53.7,30.07,WNW,283,0.0,21.0,65,0.00,,,0.00,Wunderground v.1.15,2013-03-31 00:05:00,
2013-03-30 20:15:00,65.3,54.1,30.08,WNW,283,0.0,21.0,67,0.00,,,0.00,Wunderground v.1.15,2013-03-31 00:15:00,
2013-03-30 20:20:00,65.2,54.4,30.08,WNW,283,0.0,21.0,68,0.00,,,0.00,Wunderground v.1.15,2013-03-31 00:20:00,
2013-03-30 20:25:00,65.0,54.2,30.08,WNW,283,0.0,21.0,68,0.00,,,0.00,Wunderground v.1.15,2013-03-31 00:25:00,
2013-03-30 20:35:00,64.7,55.1,30.08,WNW,283,0.0,21.0,71,0.00,,,0.00,Wunderground v.1.15,2013-03-31 00:35:00,
2013-03-30 20:45:00,64.7,55.8,30.08,WNW,283,0.0,21.0,73,0.00,,,0.00,Wunderground v.1.15,2013-03-31 00:45:00,
2013-03-30 20:50:00,64.7,56.2,30.08,WNW,283,0.0,21.0,74,0.00,,,0.00,Wunderground v.1.15,2013-03-31 00:50:00,
2013-03-30 21:00:00,64.5,56.8,30.08,WNW,284,0.0,21.0,76,0.00,,,0.00,Wunderground v.1.15,2013-03-31 01:00:00,
2013-03-30 21:05:00,64.3,56.9,30.08,WNW,285,0.0,21.0,77,0.00,,,0.00,Wunderground v.1.15,2013-03-31 01:05:00,
2013-03-30 21:15:00,64.2,57.5,30.08,WNW,293,0.0,6.0,79,0.00,,,0.00,Wunderground v.1.15,2013-03-31 01:15:00,
2013-03-30 21:20:00,64.2,57.9,30.08,WNW,295,0.0,6.0,80,0.00,,,0.00,Wunderground v.1.15,2013-03-31 01:20:00,
2013-03-30 21:30:00,64.0,57.4,30.08,WNW,295,0.0,6.0,79,0.00,,,0.00,Wunderground v.1.15,2013-03-31 01:30:00,
2013-03-30 21:35:00,63.9,57.6,30.08,WNW,295,0.0,6.0,80,0.00,,,0.00,Wunderground v.1.15,2013-03-31 01:35:00,
2013-03-30 21:45:00,63.5,57.6,30.09,WNW,295,0.0,6.0,81,0.00,,,0.00,Wunderground v.1.15,2013-03-31 01:45:00,
2013-03-30 21:50:00,63.4,57.5,30.09,WNW,295,0.0,6.0,81,0.00,,,0.00,Wunderground v.1.15,2013-03-31 01:50:00,
2013-03-30 22:00:00,63.2,57.3,30.09,WNW,295,0.0,6.0,81,0.00,,,0.00,Wunderground v.1.15,2013-03-31 02:00:00,
2013-03-30 22:05:00,63.1,57.2,30.09,WNW,295,0.0,6.0,81,0.00,,,0.00,Wunderground v.1.15,2013-03-31 02:05:00,
2013-03-30 22:15:00,62.7,57.1,30.09,WNW,295,0.0,6.0,82,0.00,,,0.00,Wunderground v.1.15,2013-03-31 02:15:00,
2013-03-30 22:20:00,62.7,57.1,30.09,WNW,295,0.0,6.0,82,0.00,,,0.00,Wunderground v.1.15,2013-03-31 02:20:00,
2013-03-30 22:30:00,62.6,57.4,30.09,WNW,295,0.0,6.0,83,0.00,,,0.00,Wunderground v.1.15,2013-03-31 02:30:00,
2013-03-30 22:35:00,62.4,57.2,30.09,WNW,295,0.0,6.0,83,0.00,,,0.00,Wunderground v.1.15,2013-03-31 02:35:00,
2013-03-30 22:45:00,62.4,57.5,30.09,WNW,295,0.0,6.0,84,0.00,,,0.00,Wunderground v.1.15,2013-03-31 02:45:00,
2013-03-30 22:50:00,62.3,57.4,30.09,WNW,295,0.0,6.0,84,0.00,,,0.00,Wunderground v.1.15,2013-03-31 02:50:00,
2013-03-30 23:00:00,61.8,56.9,30.09,WNW,295,0.0,6.0,84,0.00,,,0.00,Wunderground v.1.15,2013-03-31 03:00:00,
2013-03-30 23:05:00,61.6,56.7,30.09,WNW,295,0.0,6.0,84,0.00,,,0.00,Wunderground v.1.15,2013-03-31 03:05:00,
2013-03-30 23:15:00,60.7,56.2,30.10,ESE,103,1.0,6.0,85,0.00,,,0.00,Wunderground v.1.15,2013-03-31 03:15:00,
2013-03-30 23:20:00,60.4,55.9,30.10,ESE,103,0.0,6.0,85,0.00,,,0.00,Wunderground v.1.15,2013-03-31 03:20:00,
2013-03-30 23:30:00,60.2,56.0,30.10,ESE,103,0.0,6.0,86,0.00,,,0.00,Wunderground v.1.15,2013-03-31 03:30:00,
2013-03-30 23:35:00,60.2,56.0,30.10,ESE,103,0.0,6.0,86,0.00,,,0.00,Wunderground v.1.15,2013-03-31 03:35:00,
2013-03-30 23:45:00,59.9,56.0,30.10,East,99,0.0,6.0,87,0.00,,,0.00,Wunderground v.1.15,2013-03-31 03:45:00,
2013-03-30 23:55:00,59.8,56.2,30.10,East,99,0.0,6.0,88,0.00,,,0.00,Wunderground v.1.15,2013-03-31 03:55:00,